Vertical_Velocity
-1 -2 -2 -1 -1 -1 -0 -2 -1 -1 -0 -3 -3 -2 -2 -1 -3 -2 -1 -2 -2 -2 -3 -3 -2 -1 -2 3 -10 2 -4 -5 -4 -5 -6 -5 -8 -6 -4 1 1 -4 4 1 1 5 18
-3 -3 -2 -0 0 -0 -1 -1 -1 -1 -2 -1 -0 -0 -1 -2 -3 -3 -2 -2 -3 -2 -1 -3 -3 -1 4 8 4 -4 -5 -6 -0 -2 -3 -3 -7 -8 -3 -3 -5 12 0 1 -1 7 5
1 1 -1 -1 -2 -4 -2 -3 -1 -2 -1 0 0 -1 -0 -2 -1 -1 -1 -2 -4 -5 -3 -3 -5 -6 7 21 -2 3 0 -5 1 -0 -4 -2 -4 -4 -2 -0 -5 5 -6 2 0 6 3
-3 -2 -2 -2 -1 -1 -0 -1 -2 -2 -2 -2 -3 -4 -4 -4 -3 -2 1 3 -4 -4 -1 -4 -2 -9 1 15 -3 -1 -2 1 -2 1 -1 -2 -2 -4 -5 0 -0 5 2 -2 3 1 -2
1 -1 -1 0 -1 -2 1 -4 -4 -3 -3 -3 -4 -4 -2 -1 -2 -2 1 -1 -4 -2 -3 -5 -1 -8 6 16 2 3 2 -0 2 -1 -0 3 -4 -1 -3 4 -3 3 2 7 6 -1 -1
-1 -1 -2 -2 -0 -0 -3 1 2 -1 -1 0 -3 -3 -1 -0 -7 -0 7 -1 -0 -3 -2 0 -6 -2 9 5 6 2 6 -2 -1 2 -3 5 -7 -4 1 -1 1 6 8 10 -9 10 -7
-0 1 -2 -3 -3 -1 -0 -0 -7 -5 -1 -0 -0 -0 1 0 -7 -2 0 2 -1 -11 0 7 -11 6 0 8 -2 6 8 -2 0 2 6 -3 -4 6 -0 -2 5 6 -3 1 0 9 2
2 -1 -1 2 0 -1 -2 -3 -3 4 2 -3 -2 -1 -0 8 -4 -4 -5 -2 5 -12 -12 4 4 -3 18 -16 -7 13 -0 -1 -2 8 -5 -5 4 4 -2 -4 -1 3 -4 -8 4 -8 3
-4 -4 -1 -2 -1 -0 2 -1 -0 -1 0 2 -3 -6 -5 11 -4 -2 -7 -1 2 -7 -26 12 10 9 -6 -5 3 11 0 0 5 -2 6 -4 19 -4 1 -0 -6 2 -7 4 5 4 -4
-5 -1 -2 -1 -1 -1 -1 -2 -1 -4 -2 2 -2 -8 -1 8 4 -2 1 -3 -3 -3 -22 10 -10 -3 5 4 -12 0 6 10 -8 7 5 -12 8 7 1 -0 1 -9 17 13 5 3 -0
1 -2 -0 -1 -0 -1 -0 -0 -0 2 2 3 13 -9 -5 -21 16 -1 -5 -1 -3 1 -34 -1 -10 -4 3 5 -4 7 3 1 -2 8 -2 25 12 3 -4 16 -3 12 16 4 7 -7 1
-1 -2 -3 -1 -3 -2 1 -0 -1 0 -1 2 10 0 -7 6 -13 -11 15 -1 -1 -5 -19 -3 -1 -7 -1 3 4 -9 0 -2 7 -2 1 8 7 -9 7 2 -0 4 7 4 2 2 2
-1 -1 -3 2 0 -3 0 -3 -0 -4 -2 0 8 13 -9 -6 16 -5 -4 -3 -3 -10 13 -10 -6 2 0 6 2 3 2 1 3 -8 7 7 9 2 -1 -3 2 0 5 4 9 3 -38
-1 0 1 -1 -4 -3 -2 -4 -3 -1 -4 -7 -0 15 1 -1 -5 9 -1 -1 -12 12 8 -7 -5 -2 -1 -0 10 -2 -6 -0 3 5 1 -1 -5 1 19 3 8 9 3 1 -5 -18 1
0 -4 -4 -4 -2 -4 -3 -1 -3 -3 -3 -5 1 21 1 -2 -0 -1 -0 -4 13 11 -3 -6 4 -5 2 4 -4 -0 -3 -2 4 5 -5 -4 -7 6 1 0 8 -3 -9 17 0 9 -2
-1 -3 -2 -6 -2 -6 -5 -4 -3 -4 -7 -11 -9 7 -2 14 8 1 -4 -1 12 -1 -11 -2 1 -5 2 4 4 -3 4 12 10 3 -1 6 -1 3 0 1 9 7 22 2 2 -1 -12
-3 -4 -2 -1 -1 -2 -2 -4 -3 -4 -5 -5 -1 -5 2 2 7 -4 3 2 1 5 -1 -6 5 0 4 8 -1 -6 -2 10 5 9 -14 4 -6 11 -6 -10 5 3 -9 -4 26 -3 -17
-4 -1 -1 -2 -1 -3 -0 2 -1 -2 -7 -1 -3 6 2 -2 12 6 4 10 3 12 6 8 4 6 5 7 5 -4 5 10 4 -9 -5 11 -2 -11 1 2 8 3 7 6 9 -5 -7
-1 -2 -3 -2 -6 -4 -3 -3 -5 3 1 -7 -7 -6 3 1 -4 7 0 4 4 9 14 16 12 -0 -10 7 0 3 1 18 -3 7 4 9 -15 1 -1 -4 -2 -15 -5 1 16 14 -8
-2 -3 -1 -1 -5 -6 -0 -2 0 -1 3 -4 -6 -11 -4 3 6 -4 -1 4 6 9 8 2 9 4 5 7 -0 3 -0 1 9 6 11 -10 -5 -7 2 7 12 1 7 7 7 0 16
-2 -5 -0 -2 -21 -7 6 0 6 3 -1 -2 4 3 1 2 10 -1 -4 -4 1 -8 2 3 5 1 7 -2 -0 -2 6 5 8 2 7 -4 -4 -2 6 -2 1 -0 4 12 -10 -1 -29
-4 -3 -2 -1 -3 -6 -2 31 -19 -12 7 -1 -3 -3 -2 -2 -2 3 3 3 -2 3 -3 6 -2 8 -2 -5 -8 4 -4 11 -4 8 19 4 -4 1 -1 3 -1 -12 -3 1 9 4 -29
-2 -1 -1 -2 -3 0 1 -1 1 1 4 7 4 4 4 -2 3 1 8 2 -2 -6 13 -1 -3 -14 -0 11 -12 -0 -4 2 10 5 11 -4 0 -1 -2 2 6 -33 -2 -13 -1 -6 16
-2 -2 -5 -3 1 -8 1 -0 0 3 5 7 3 0 0 -0 -4 1 5 -4 3 7 -15 5 1 -12 11 -4 -16 -2 -1 -2 -8 17 8 8 17 4 2 12 -58 43 4 4 4 -4 -13
-3 -5 -1 -1 0 -1 2 2 0 2 2 7 7 6 1 -6 -2 9 -2 -0 2 -1 3 -13 14 -5 -10 -4 -7 -13 -5 5 7 -1 -7 9 16 7 1 -11 17 -4 8 7 -1 12 7
-4 -6 -5 -4 -6 0 -1 -1 0 1 2 4 6 2 3 -0 1 -2 -0 1 -2 -1 5 6 3 -4 -6 -5 1 -7 -10 2 -4 -14 12 2 5 10 3 -11 -7 27 10 3 -9 -18 10
-4 -2 -5 -7 -2 -2 -1 -1 1 1 3 -2 6 2 1 -3 -1 -1 -2 -0 2 0 -3 2 0 3 -4 8 6 3 -4 3 -6 -3 -2 4 8 3 8 -3 -2 -2 7 -2 -19 48 3
-6 -3 -5 -5 -2 -1 -0 -1 0 -1 9 -2 9 4 -4 -11 6 -4 2 6 -0 2 -2 6 -0 -2 2 2 5 12 9 1 -1 7 -2 4 4 4 8 2 -1 3 -2 -17 20 -1 5
-9 -0 -5 -4 -2 -3 -0 -1 1 1 -1 -2 5 3 0 -11 4 -2 9 2 -2 1 -1 3 3 0 2 4 6 -1 -4 6 7 -8 5 -9 -18 -7 -0 13 2 -0 3 5 9 1 5
Height
5817 5814 5810 5806 5802 5798 5794 5791 5787 5784 5781 5778 5775 5772 5769 5767 5765 5763 5760 5758 5756 5753 5750 5747 5744 5742 5740 5739 5732 5731 5727 5724 5719 5715 5711 5707 5703 5697 5694 5694 5695 5701 5709 5711 5718 5724 5733
5808 5804 5802 5798 5794 5790 5786 5783 5779 5776 5773 5770 5768 5766 5763 5761 5758 5755 5752 5749 5747 5744 5740 5737 5734 5732 5731 5730 5723 5720 5717 5714 5711 5706 5702 5699 5695 5689 5685 5684 5684 5694 5695 5700 5705 5713 5717
5800 5796 5793 5789 5787 5783 5779 5776 5773 5770 5768 5765 5763 5760 5756 5754 5751 5747 5742 5739 5737 5733 5729 5726 5723 5721 5719 5722 5711 5710 5706 5703 5700 5698 5694 5689 5686 5682 5678 5676 5678 5683 5687 5692 5696 5703 5710
5793 5790 5786 5782 5778 5775 5772 5769 5767 5764 5761 5758 5755 5752 5748 5744 5740 5736 5733 5731 5726 5720 5718 5713 5710 5707 5707 5710 5701 5697 5696 5692 5689 5687 5684 5680 5677 5675 5671 5670 5672 5675 5677 5682 5692 5696 5699
5786 5782 5778 5774 5771 5769 5765 5762 5759 5756 5752 5749 5745 5741 5737 5732 5728 5723 5720 5716 5712 5707 5703 5699 5696 5693 5694 5696 5690 5685 5684 5680 5679 5676 5675 5673 5669 5668 5665 5664 5665 5668 5673 5679 5686 5691 5695
5779 5776 5773 5769 5766 5761 5758 5754 5752 5747 5743 5738 5734 5729 5725 5719 5713 5709 5705 5700 5695 5692 5689 5685 5681 5679 5679 5678 5677 5673 5670 5667 5667 5666 5665 5664 5660 5660 5659 5657 5659 5662 5667 5669 5675 5681 5687
5770 5767 5765 5761 5758 5754 5750 5746 5742 5738 5733 5728 5722 5716 5710 5702 5697 5693 5689 5684 5679 5675 5675 5672 5666 5665 5660 5662 5660 5656 5655 5655 5655 5655 5655 5652 5650 5654 5650 5650 5651 5655 5656 5659 5667 5673 5677
5764 5760 5757 5753 5749 5745 5741 5737 5733 5726 5719 5712 5706 5699 5694 5687 5679 5674 5670 5664 5659 5656 5658 5658 5652 5646 5647 5642 5641 5644 5642 5643 5643 5644 5641 5641 5643 5645 5640 5640 5642 5646 5649 5655 5660 5665 5666
5757 5755 5750 5745 5740 5735 5730 5724 5718 5712 5704 5696 5688 5683 5679 5675 5664 5658 5655 5650 5644 5637 5636 5649 5640 5631 5629 5625 5628 5630 5629 5629 5630 5630 5631 5630 5634 5631 5631 5631 5634 5638 5643 5650 5656 5658 5660
5750 5744 5740 5736 5730 5724 5717 5710 5703 5697 5690 5681 5671 5663 5660 5657 5649 5642 5638 5634 5626 5619 5615 5628 5624 5618 5615 5611 5611 5612 5611 5615 5612 5617 5618 5617 5622 5623 5622 5624 5628 5630 5638 5638 5641 5644 5650
5741 5736 5730 5724 5717 5710 5703 5695 5688 5681 5674 5667 5659 5647 5644 5635 5634 5627 5621 5616 5609 5603 5593 5602 5605 5605 5602 5600 5600 5600 5598 5598 5601 5604 5607 5612 5613 5612 5611 5619 5618 5624 5626 5629 5632 5636 5641
5731 5725 5719 5711 5703 5695 5687 5679 5671 5664 5656 5650 5641 5628 5623 5618 5610 5608 5604 5596 5592 5589 5581 5586 5588 5587 5588 5588 5585 5588 5590 5590 5593 5594 5596 5600 5601 5599 5604 5606 5609 5613 5617 5621 5625 5628 5628
5719 5711 5704 5696 5688 5681 5672 5664 5655 5647 5639 5632 5625 5613 5603 5600 5596 5590 5586 5581 5576 5571 5573 5572 5573 5572 5574 5575 5576 5575 5578 5580 5583 5583 5586 5589 5591 5591 5593 5595 5599 5602 5609 5614 5616 5617 5619
5705 5697 5690 5682 5674 5665 5656 5647 5639 5630 5621 5614 5608 5598 5585 5581 5576 5571 5569 5563 5559 5558 5559 5556 5560 5558 5560 5561 5563 5562 5566 5570 5573 5574 5576 5578 5581 5582 5587 5588 5591 5594 5599 5604 5606 5612 5621
5692 5685 5677 5667 5658 5650 5640 5630 5620 5610 5600 5591 5585 5580 5564 5558 5554 5549 5548 5545 5544 5541 5541 5541 5544 5543 5546 5546 5548 5551 5553 5557 5562 5564 5565 5568 5571 5574 5576 5579 5585 5587 5588 5599 5601 5605 5607
5679 5670 5661 5652 5643 5634 5624 5611 5600 5588 5579 5570 5563 5557 5540 5538 5529 5525 5523 5525 5524 5518 5519 5522 5525 5528 5530 5532 5535 5538 5542 5547 5552 5553 5555 5559 5560 5564 5566 5569 5575 5580 5589 5590 5592 5597 5603
5664 5656 5647 5638 5628 5616 5605 5591 5578 5564 5553 5542 5535 5527 5514 5507 5502 5497 5497 5498 5496 5495 5498 5503 5506 5510 5515 5516 5518 5524 5529 5534 5539 5543 5543 5547 5548 5555 5556 5557 5567 5573 5576 5580 5587 5592 5599
5651 5643 5633 5623 5611 5598 5584 5569 5554 5538 5525 5513 5503 5499 5488 5478 5480 5472 5471 5472 5470 5473 5475 5481 5487 5489 5495 5498 5503 5507 5516 5520 5525 5529 5535 5539 5541 5543 5548 5553 5559 5563 5568 5574 5577 5586 5594
5638 5628 5616 5605 5593 5578 5563 5547 5529 5513 5497 5485 5475 5471 5471 5458 5454 5452 5451 5454 5453 5453 5458 5462 5466 5467 5469 5478 5484 5492 5499 5510 5514 5519 5523 5527 5529 5531 5536 5542 5545 5553 5561 5565 5573 5578 5583
5624 5614 5600 5586 5572 5556 5540 5522 5504 5490 5479 5467 5459 5454 5456 5450 5444 5442 5440 5442 5441 5440 5442 5446 5449 5450 5454 5456 5463 5473 5479 5493 5502 5508 5514 5517 5518 5524 5529 5536 5546 5551 5556 5560 5564 5568 5579
5609 5596 5582 5566 5544 5536 5516 5497 5484 5473 5464 5455 5450 5446 5442 5443 5439 5434 5432 5433 5433 5431 5431 5435 5437 5438 5440 5440 5445 5452 5463 5475 5490 5496 5503 5510 5510 5516 5522 5528 5534 5541 5546 5551 5555 5566 5566
5593 5579 5564 5548 5530 5511 5494 5473 5460 5458 5452 5446 5440 5437 5433 5434 5431 5429 5427 5427 5425 5424 5423 5425 5422 5426 5428 5431 5428 5438 5443 5458 5473 5485 5493 5499 5503 5508 5514 5520 5524 5529 5535 5540 5549 5559 5561
5577 5561 5544 5526 5506 5488 5474 5463 5453 5446 5442 5436 5434 5431 5426 5425 5423 5422 5422 5420 5418 5415 5418 5415 5412 5414 5419 5417 5416 5424 5430 5443 5459 5472 5480 5488 5493 5499 5504 5514 5517 5515 5526 5535 5542 5547 5557
5559 5542 5524 5504 5485 5470 5458 5448 5440 5436 5434 5430 5427 5423 5420 5416 5415 5414 5413 5412 5410 5409 5406 5407 5404 5401 5408 5404 5406 5412 5420 5428 5441 5456 5466 5478 5483 5490 5495 5507 5504 5516 5526 5533 5534 5540 5546
5540 5522 5502 5483 5467 5454 5445 5437 5430 5427 5425 5422 5420 5416 5411 5408 5408 5408 5404 5402 5401 5400 5399 5396 5397 5392 5394 5396 5398 5402 5413 5417 5426 5440 5451 5465 5472 5481 5487 5496 5501 5506 5519 5525 5528 5536 5541
5522 5502 5485 5468 5453 5443 5434 5426 5421 5418 5415 5414 5412 5408 5404 5400 5401 5397 5395 5395 5392 5391 5390 5390 5389 5386 5385 5386 5388 5393 5401 5410 5420 5429 5442 5452 5460 5470 5477 5484 5488 5501 5511 5518 5522 5530 5538
5502 5484 5467 5453 5442 5432 5424 5418 5414 5411 5408 5406 5404 5399 5395 5392 5392 5390 5389 5386 5385 5382 5379 5380 5379 5380 5376 5379 5383 5388 5395 5404 5410 5419 5430 5438 5448 5459 5467 5473 5481 5491 5507 5513 5517 5534 5532
5484 5468 5455 5442 5432 5423 5416 5411 5407 5403 5400 5397 5396 5391 5387 5384 5385 5384 5382 5380 5377 5375 5373 5375 5374 5372 5373 5376 5381 5387 5391 5400 5404 5411 5419 5430 5440 5450 5460 5467 5475 5486 5501 5509 5515 5524 5528
5470 5455 5444 5432 5422 5414 5407 5402 5398 5394 5391 5388 5387 5383 5379 5376 5377 5377 5377 5373 5369 5370 5368 5368 5369 5370 5374 5377 5382 5386 5391 5396 5403 5406 5413 5422 5433 5446 5454 5462 5471 5482 5493 5503 5508 5517 5523